Weather reports worldwide

Advertisment
St. James's Park, United Kingdom (3770): temperature & dewpoint: 22.03.2020 21:00:00 - 28.03.2020 21:00:00 (GMT)St. James's Park, United Kingdom (3770): temperature -20cm & temperature -100cm: 22.03.2020 21:00:00 - 28.03.2020 21:00:00 (GMT)St. James's Park, United Kingdom (3770): precipitation: 22.03.2020 21:00:00 - 28.03.2020 21:00:00 (GMT)
Date & Time tt [°C] td [°C] tt -20cm [°C] tt -100cm [°C] rr [mm]
28.03.2020 21:00:00 6,3 -0,8 - - 0,0
28.03.2020 20:00:00 7,0 -2,1 - - 0,0
28.03.2020 19:00:00 7,9 0,6 - - 0,0
28.03.2020 18:00:00 9,4 -0,4 - - 0,0
28.03.2020 17:00:00 10,1 -0,6 - - 0,0
28.03.2020 16:00:00 10,5 1,1 - - 0,0
28.03.2020 15:00:00 10,1 1,5 - - 0,0
28.03.2020 14:00:00 9,7 2,1 - - 0,0
28.03.2020 13:00:00 9,8 2,9 - - 0,0
28.03.2020 12:00:00 11,2 2,8 - - 0,0
28.03.2020 11:00:00 10,7 0,7 - - 0,0
28.03.2020 10:00:00 9,7 2,1 - - 0,0
28.03.2020 09:00:00 7,6 1,4 8,0 9,0 0,0
28.03.2020 08:00:00 6,6 1,4 - - 0,0
28.03.2020 07:00:00 5,8 1,9 - - 0,0
28.03.2020 06:00:00 5,4 1,6 - - 0,0
28.03.2020 05:00:00 5,4 1,1 - - 0,0
28.03.2020 04:00:00 5,5 0,9 - - 0,0
28.03.2020 03:00:00 5,6 1,0 - - 0,0
28.03.2020 02:00:00 5,9 0,9 - - 0,0
28.03.2020 01:00:00 6,1 1,0 - - 0,0
28.03.2020 00:00:00 6,2 1,1 - - 0,0
27.03.2020 23:00:00 6,7 1,1 - - 0,0
27.03.2020 22:00:00 7,0 0,9 - - 0,0
27.03.2020 21:00:00 7,8 0,3 - - 0,0
27.03.2020 20:00:00 9,2 -0,3 - - 0,0
27.03.2020 19:00:00 10,7 -1,8 - - 0,0
27.03.2020 18:00:00 11,9 -1,4 - - 0,0
27.03.2020 17:00:00 12,9 -1,2 - - 0,0
27.03.2020 16:00:00 13,5 -0,3 - - 0,0
27.03.2020 15:00:00 13,6 -0,5 - - 0,0
27.03.2020 14:00:00 13,8 -0,1 - - 0,0
27.03.2020 13:00:00 13,2 0,5 - - 0,0
27.03.2020 12:00:00 12,5 -0,4 - - 0,0
27.03.2020 11:00:00 11,8 -0,2 - - 0,0
27.03.2020 10:00:00 10,0 0,8 - - 0,0
27.03.2020 09:00:00 7,3 1,8 7,5 9,0 0,0
27.03.2020 08:00:00 4,9 1,8 - - 0,0
27.03.2020 07:00:00 3,6 1,2 - - 0,0
27.03.2020 06:00:00 3,4 0,9 - - 0,0
27.03.2020 05:00:00 3,4 0,8 - - 0,0
27.03.2020 04:00:00 3,6 0,5 - - 0,0
27.03.2020 03:00:00 3,9 0,6 - - 0,0
27.03.2020 02:00:00 4,0 0,3 - - 0,0
27.03.2020 01:00:00 4,8 0,5 - - 0,0
27.03.2020 00:00:00 5,2 0,0 - - 0,0
26.03.2020 23:00:00 5,7 -0,6 - - 0,0
26.03.2020 22:00:00 6,2 -1,6 - - 0,0
26.03.2020 21:00:00 6,9 -1,4 - - 0,0
26.03.2020 20:00:00 7,4 -2,5 - - 0,0
26.03.2020 19:00:00 8,6 -2,1 - - 0,0
26.03.2020 18:00:00 10,6 -3,9 - - 0,0
26.03.2020 17:00:00 12,5 -7,7 - - 0,0
26.03.2020 16:00:00 13,1 -2,7 - - 0,0
26.03.2020 15:00:00 13,1 -3,0 - - 0,0
26.03.2020 14:00:00 12,4 -2,1 - - 0,0
26.03.2020 13:00:00 12,4 -3,5 - - 0,0
26.03.2020 12:00:00 11,9 -2,1 - - 0,0
26.03.2020 11:00:00 11,1 -1,6 - - 0,0
26.03.2020 10:00:00 9,6 0,8 - - 0,0
26.03.2020 09:00:00 6,4 1,0 7,4 9,0 0,0
26.03.2020 08:00:00 4,6 0,3 - - 0,0
26.03.2020 07:00:00 2,8 -0,4 - - 0,0
26.03.2020 06:00:00 2,8 -0,3 - - 0,0
26.03.2020 05:00:00 3,0 -0,6 - - 0,0
26.03.2020 04:00:00 3,3 -0,5 - - 0,0
26.03.2020 03:00:00 3,7 -0,8 - - 0,0
26.03.2020 02:00:00 4,0 -0,9 - - 0,0
26.03.2020 01:00:00 4,6 -1,1 - - 0,0
26.03.2020 00:00:00 4,4 -1,5 - - 0,0
25.03.2020 23:00:00 5,3 -1,6 - - 0,0
25.03.2020 22:00:00 5,9 -1,9 - - 0,0
25.03.2020 21:00:00 6,3 -2,2 - - 0,0
25.03.2020 20:00:00 7,0 -3,0 - - 0,0
25.03.2020 19:00:00 8,2 -4,0 - - 0,0
25.03.2020 18:00:00 9,4 -5,0 - - 0,0
25.03.2020 17:00:00 10,9 -7,6 - - 0,0
25.03.2020 16:00:00 11,9 -6,5 - - 0,0
25.03.2020 15:00:00 13,3 -3,9 - - 0,0
25.03.2020 14:00:00 12,8 -3,6 - - 0,0
25.03.2020 13:00:00 13,1 -2,2 - - 0,0
25.03.2020 12:00:00 12,1 -3,2 - - 0,0
25.03.2020 11:00:00 11,4 -3,9 - - 0,0
25.03.2020 10:00:00 9,8 -1,8 - - 0,0
25.03.2020 09:00:00 7,7 -2,2 7,4 9,0 0,0
25.03.2020 08:00:00 6,0 -0,4 - - 0,0
25.03.2020 07:00:00 2,6 0,3 - - 0,0
25.03.2020 06:00:00 1,9 -1,4 - - 0,0
25.03.2020 05:00:00 2,6 -1,3 - - 0,0
25.03.2020 04:00:00 2,9 -2,4 - - 0,0
25.03.2020 03:00:00 3,4 -2,6 - - 0,0
25.03.2020 02:00:00 4,3 -2,8 - - 0,0
25.03.2020 01:00:00 4,6 -2,1 - - 0,0
25.03.2020 00:00:00 5,7 -3,1 - - 0,0
24.03.2020 23:00:00 6,5 -3,3 - - 0,0
24.03.2020 22:00:00 6,8 -4,2 - - 0,0
24.03.2020 21:00:00 7,9 -4,1 - - 0,0
24.03.2020 20:00:00 9,5 -2,5 - - 0,0
24.03.2020 19:00:00 12,2 -3,8 - - 0,0
24.03.2020 18:00:00 12,6 -4,7 - - 0,0
24.03.2020 17:00:00 14,7 -3,5 - - 0,0
24.03.2020 16:00:00 15,6 -1,4 - - 0,0
24.03.2020 15:00:00 15,7 -1,4 - - 0,0
24.03.2020 14:00:00 15,0 -0,7 - - 0,0
24.03.2020 13:00:00 14,5 0,0 - - 0,0
24.03.2020 12:00:00 13,6 0,1 - - 0,0
24.03.2020 11:00:00 11,5 -0,8 - - 0,0
24.03.2020 10:00:00 10,0 -0,1 - - 0,0
24.03.2020 09:00:00 7,5 -0,2 7,4 9,0 0,0
24.03.2020 08:00:00 5,6 -1,2 - - 0,0
24.03.2020 07:00:00 4,3 -1,7 - - 0,0
24.03.2020 06:00:00 4,1 -1,8 - - 0,0
24.03.2020 05:00:00 3,8 -1,8 - - 0,0
24.03.2020 04:00:00 3,2 -2,3 - - 0,0
24.03.2020 03:00:00 3,0 -2,1 - - 0,0
24.03.2020 02:00:00 4,5 -2,1 - - 0,0
24.03.2020 01:00:00 4,7 -2,2 - - 0,0
24.03.2020 00:00:00 5,7 -2,0 - - 0,0
23.03.2020 23:00:00 6,1 -0,9 - - 0,0
23.03.2020 22:00:00 6,2 -0,4 - - 0,0
23.03.2020 21:00:00 6,5 -0,5 - - 0,0
23.03.2020 20:00:00 6,9 -0,6 - - 0,0
23.03.2020 19:00:00 8,1 -0,1 - - 0,0
23.03.2020 18:00:00 9,2 -0,4 - - 0,0
23.03.2020 17:00:00 10,6 0,2 - - 0,0
23.03.2020 16:00:00 10,7 -0,2 - - 0,0
23.03.2020 15:00:00 11,5 0,2 - - 0,0
23.03.2020 14:00:00 11,4 0,1 - - 0,0
23.03.2020 13:00:00 11,1 -0,8 - - 0,0
23.03.2020 12:00:00 10,0 -2,9 - - 0,0
23.03.2020 11:00:00 8,7 -2,6 - - 0,0
23.03.2020 10:00:00 7,7 -2,1 - - 0,0
23.03.2020 09:00:00 5,5 -3,0 7,7 9,0 0,0
23.03.2020 08:00:00 4,5 -3,0 - - 0,0
23.03.2020 07:00:00 3,6 -3,6 - - 0,0
23.03.2020 06:00:00 3,8 -3,8 - - 0,0
23.03.2020 05:00:00 4,5 -3,2 - - 0,0
23.03.2020 04:00:00 4,9 -1,7 - - 0,0
23.03.2020 03:00:00 5,9 -1,3 - - 0,0
23.03.2020 02:00:00 6,0 -0,1 - - 0,0
23.03.2020 01:00:00 6,2 0,2 - - 0,0
23.03.2020 00:00:00 6,5 0,8 - - 0,0
22.03.2020 23:00:00 6,7 1,3 - - 0,0
22.03.2020 22:00:00 6,7 0,9 - - 0,0
22.03.2020 21:00:00 6,9 0,5 - - 0,0

tt = temperature
td = dewpoint
tt -20cm = temperature -20cm
tt -100cm = temperature -100cm
rr = precipitation

Next stations